Main page
METAR-TAF:

METAR-TAF

Airports :

Fairfield County Airport

Lancaster, Ohio, United States

latitude: 39-45-26N, longitude: 082-39-48W, elevation: 866 ft

Current weather observation

The report was made 21 minutes ago, at 02:53 UTC
Wind 3 mph from the South/Southwest
Temperature 75°F
Humidity 50%
Pressure 29.92 in. Hg
Visibility: 10 miles
Clear sky

METAR: KLHQ 030253Z AUTO 20003KT 10SM CLR 24/13 A2992 RMK AO2 SLP124 T02390133 50003

Time: 23:14 (03:14 UTC)


TAF: missing

Weather observations and forecasts of more than 4000 airports (METAR and TAF reports).

The available stations are represented by yellow and red dots on the map.

Hover mouse over dot to see the name of the station.

Then click to see weather observations and forecasts.

To change the map : click on the green buttons with a black cross to zoom in, on the green button with a dash to zoom out, or on the green arrows for adjacent maps.


METAR-TAF: